Lawrenceville, GA

11:38 AM EST on December 14, 2019 (GMT -0500)
Gwinnett County-Briscoe

Weather History for KLZU - November, 2019

Change the Weather History Date:

Tuesday, November 19, 2019

  Actual Average (WUND) Record (WUND)
Temperature  
Mean Temperature 51 °F -  
Max Temperature 60 °F - - (-1)
Min Temperature 42 °F - - (-1)
Degree Days  
Heating Degree Days 14    
Growing Degree Days 1 (Base 50)    
Moisture  
Dew Point 39 °F    
Average Humidity 69    
Maximum Humidity 96    
Minimum Humidity 42    
Precipitation  
Precipitation 0.00 in - - ()
Sea Level Pressure  
Sea Level Pressure 29.91 in    
Wind  
Wind Speed 4 mph ()    
Max Wind Speed 13 mph    
Max Gust Speed 18 mph    
Visibility 10.0 miles    
Events      
Averages and records for this station are not official NWS values.
T = Trace of Precipitation, MM = Missing Value Source: Averaged Metar Reports

Daily Weather History Graph

Daily Weather History Graph

Search for Another Location

Airport or City:

Astronomy

Nov. 19, 2019 Rise Set
Actual Time 7:11 AM EST 5:30 PM EST
Civil Twilight 6:45 AM EST 5:56 PM EST
Nautical Twilight 6:14 AM EST 6:27 PM EST
Astronomical Twilight 5:44 AM EST 6:57 PM EST
Moon No Moon Rise 1:23 PM EST (11/19)
Length of Visible Light 11h 11m
Length of Day
10h 18m
Waning Gibbous, 52% of the Moon is Illuminated
Nov 19
Waning Gibbous
Nov 19
Last Quarter
Nov 26
New
Dec 4
First Quarter
Dec 12
Full

Hourly Weather History & Observations

Time (EST) Temp. Windchill Dew Point Humidity Pressure Visibility Wind Dir Wind Speed Gust Speed Precip Events Conditions
12:56 AM 45.0 °F - 37.9 °F 76% 29.83 in 10.0 mi Calm Calm - N/A   Clear
1:56 AM 45.0 °F 43.5 °F 39.0 °F 80% 29.82 in 10.0 mi West 3.5 mph - N/A   Scattered Clouds
2:56 AM 46.0 °F 43.9 °F 39.0 °F 76% 29.82 in 10.0 mi West 4.6 mph - N/A   Scattered Clouds
3:56 AM 46.0 °F 43.1 °F 39.0 °F 76% 29.85 in 10.0 mi West 5.8 mph - N/A   Overcast
4:56 AM 46.0 °F 42.5 °F 37.9 °F 73% 29.84 in 10.0 mi West 6.9 mph - N/A   Overcast
5:56 AM 46.0 °F 42.5 °F 36.0 °F 68% 29.85 in 10.0 mi Variable 6.9 mph - N/A   Overcast
6:56 AM 45.0 °F 41.2 °F 36.0 °F 71% 29.88 in 10.0 mi Variable 6.9 mph - 0.00 in   Overcast
7:56 AM 45.0 °F 42.6 °F 36.0 °F 71% 29.90 in 10.0 mi West 4.6 mph - N/A   Overcast
8:56 AM 46.0 °F 41.9 °F 37.0 °F 71% 29.92 in 10.0 mi WNW 8.1 mph - N/A   Overcast
9:56 AM 48.9 °F - 36.0 °F 61% 29.92 in 10.0 mi Variable 4.6 mph - N/A   Mostly Cloudy
10:56 AM 51.1 °F - 36.0 °F 56% 29.93 in 10.0 mi Variable 3.5 mph - N/A   Mostly Cloudy
11:56 AM 53.1 °F - 37.0 °F 55% 29.93 in 10.0 mi West 9.2 mph - N/A   Overcast
12:56 PM 57.9 °F - 37.0 °F 46% 29.90 in 10.0 mi Variable 6.9 mph - N/A   Scattered Clouds
1:56 PM 60.1 °F - 37.0 °F 42% 29.87 in 10.0 mi West 12.7 mph 18.4 mph N/A   Scattered Clouds
2:56 PM 60.1 °F - 37.9 °F 44% 29.87 in 10.0 mi WSW 10.4 mph 16.1 mph N/A   Clear
3:56 PM 60.1 °F - 37.9 °F 44% 29.88 in 10.0 mi WSW 10.4 mph - N/A   Clear
4:56 PM 59.0 °F - 39.0 °F 48% 29.90 in 10.0 mi West 3.5 mph - N/A   Clear
5:56 PM 52.0 °F - 39.9 °F 63% 29.93 in 10.0 mi Calm Calm - N/A   Clear
6:56 PM 48.9 °F - 42.1 °F 77% 29.95 in 10.0 mi Calm Calm - N/A   Clear
7:56 PM 46.9 °F - 42.1 °F 83% 29.97 in 10.0 mi Calm Calm - N/A   Mostly Cloudy
8:56 PM 45.0 °F - 42.1 °F 90% 29.99 in 10.0 mi Calm Calm - N/A   Clear
9:56 PM 44.1 °F - 42.1 °F 93% 29.99 in 10.0 mi Calm Calm - N/A   Partly Cloudy
10:56 PM 42.1 °F - 41.0 °F 96% 29.99 in 10.0 mi Calm Calm - N/A   Clear
11:56 PM 46.0 °F 44.8 °F 42.1 °F 86% 29.99 in 10.0 mi West 3.5 mph - N/A   Clear